TimeEST,TemperatureF,Dew PointF,Humidity,Sea Level PressureIn,VisibilityMPH,Wind Direction,Wind SpeedMPH,Gust SpeedMPH,PrecipitationIn,Events,Conditions,WindDirDegrees,DateUTC
12:15 AM,35.6,30.6,82,30.20,7.0,Calm,Calm,-,N/A,,Clear,0,2012-11-10 05:15:00
12:35 AM,36.1,30.9,81,30.19,10.0,Calm,Calm,-,N/A,,Clear,0,2012-11-10 05:35:00
12:55 AM,36.3,30.6,80,30.20,10.0,Calm,Calm,-,N/A,,Clear,0,2012-11-10 05:55:00
1:15 AM,38.3,31.1,75,30.20,10.0,Calm,Calm,-,N/A,,Scattered Clouds,0,2012-11-10 06:15:00
1:35 AM,38.8,31.8,76,30.21,10.0,West,4.6,-,N/A,,Overcast,280,2012-11-10 06:35:00
1:55 AM,38.3,32.0,78,30.22,10.0,Calm,Calm,-,N/A,,Overcast,0,2012-11-10 06:55:00
2:15 AM,35.8,31.3,84,30.22,7.0,Calm,Calm,-,N/A,,Mostly Cloudy,0,2012-11-10 07:15:00
5:53 AM,37.4,33.8,87,30.26,5.0,Calm,Calm,-,N/A,Rain,Light Rain,0,2012-11-10 10:53:00
6:53 AM,37.4,35.6,93,30.27,7.0,Variable,3.5,-,N/A,,Overcast,0,2012-11-10 11:53:00
8:53 AM,39.2,35.6,87,30.33,5.0,Calm,Calm,-,N/A,,Overcast,0,2012-11-10 13:53:00
9:53 AM,39.2,37.4,93,30.31,5.0,Calm,Calm,-,N/A,,Overcast,0,2012-11-10 14:53:00
10:53 AM,42.8,39.2,87,30.30,5.0,Calm,Calm,-,N/A,,Overcast,0,2012-11-10 15:53:00
11:53 AM,46.4,39.2,76,30.28,10.0,Calm,Calm,-,N/A,,Overcast,0,2012-11-10 16:53:00
12:53 PM,50.0,37.4,62,30.26,10.0,Calm,Calm,-,N/A,,Mostly Cloudy,0,2012-11-10 17:53:00
1:53 PM,53.6,37.4,54,30.25,10.0,Calm,Calm,-,N/A,,Clear,0,2012-11-10 18:53:00
2:53 PM,53.6,37.4,54,30.24,10.0,Calm,Calm,-,N/A,,Clear,0,2012-11-10 19:53:00
3:53 PM,51.8,39.2,62,30.23,10.0,Calm,Calm,-,N/A,,Clear,0,2012-11-10 20:53:00
4:53 PM,50.0,39.2,66,30.25,10.0,NNE,3.5,-,N/A,,Clear,20,2012-11-10 21:53:00
5:53 PM,48.2,37.4,66,30.26,10.0,North,3.5,-,N/A,,Clear,10,2012-11-10 22:53:00
6:53 PM,44.6,37.4,76,30.28,10.0,North,3.5,-,N/A,,Clear,10,2012-11-10 23:53:00
7:53 PM,46.4,37.4,71,30.30,10.0,Calm,Calm,-,N/A,,Mostly Cloudy,0,2012-11-11 00:53:00
8:15 PM,45.3,38.3,76,30.31,10.0,Calm,Calm,-,N/A,,Overcast,0,2012-11-11 01:15:00
8:35 PM,44.8,37.6,76,30.31,10.0,Calm,Calm,-,N/A,,Mostly Cloudy,0,2012-11-11 01:35:00
8:55 PM,43.5,37.2,78,30.31,10.0,Calm,Calm,-,N/A,,Scattered Clouds,0,2012-11-11 01:55:00
9:15 PM,43.5,36.9,77,30.31,10.0,Calm,Calm,-,N/A,,Clear,0,2012-11-11 02:15:00
9:35 PM,43.9,36.9,76,30.32,10.0,Calm,Calm,-,N/A,,Clear,0,2012-11-11 02:35:00
9:55 PM,43.3,37.0,78,30.32,10.0,Calm,Calm,-,N/A,,Clear,0,2012-11-11 02:55:00
10:15 PM,42.8,36.9,80,30.32,10.0,Calm,Calm,-,N/A,,Clear,0,2012-11-11 03:15:00
10:35 PM,41.2,36.5,83,30.32,10.0,Calm,Calm,-,N/A,,Scattered Clouds,0,2012-11-11 03:35:00
10:55 PM,41.5,36.9,83,30.32,10.0,Calm,Calm,-,N/A,,Clear,0,2012-11-11 03:55:00
11:15 PM,41.2,36.9,85,30.32,10.0,Calm,Calm,-,N/A,,Clear,0,2012-11-11 04:15:00
11:35 PM,40.6,36.1,84,30.31,10.0,Calm,Calm,-,N/A,,Clear,0,2012-11-11 04:35:00
11:55 PM,40.8,36.1,83,30.32,10.0,Calm,Calm,-,N/A,,Scattered Clouds,0,2012-11-11 04:55:00